Tracking 28790 objects as of 18-Apr-2024
HD Live streaming from Space Station
objects crossing your sky now

FENGYUN 1C DEB

Track FENGYUN 1C DEB now!
10-day predictions


NORAD ID: 29941
Int'l Code: 1999-025JP
Perigee: 514.7 km
Apogee: 540.4 km
Inclination: 98.9 °
Period: 95.0 minutes
Semi major axis: 6898 km
RCS: 0.03 m2 (small)
Launch date: May 10, 1999
Source: People's Republic of China (PRC)
Launch site: Taiyaun Space Center, China (TSC)

Note: This is SATELLITE DEBRIS
Your satellite tracking list
Your tracking list is empty




NASA's NSSDC Master Catalog

Two Line Element Set (TLE):
1 29941U 99025JP  24109.19211370  .00252017  00000-0  12930-1 0  9993
2 29941  98.8662 195.6679 0018610  96.4715 323.4546 15.15194879913995
Source of the keplerian elements: AFSPC